Overview Statistics Trail Chart Weather Telemetry Raw packets
 

This is the latest recevied weather packets stored in our database for station/object KC4GS-13. If no packets are shown the sender has not sent any weather packets the latest 10 day(s).

<< 93 94 95 96 97 98 99 >>
Time Temp. Humidity Pressure Rain* Wind** Luminosity Snow
1787927014 23.89° C 97% 1019.2 hPa 0 mm - 136 W/m² -
1787926708 23.89° C 97% 1019.3 hPa 0 mm - 143 W/m² -
1787926407 23.89° C 98% 1019.3 hPa 0 mm - 153 W/m² -
1787926101 23.33° C 98% 1019.2 hPa 0 mm - 118 W/m² -
1787925801 23.33° C 98% 1019 hPa 0 mm - 161 W/m² -
1787925495 23.33° C 98% 1019 hPa 0 mm - 129 W/m² -
1787925190 23.33° C 98% 1019.2 hPa 0 mm - 102 W/m² -
1787924889 23.33° C 98% 1019.2 hPa 0 mm - 91 W/m² -
1787924584 23.33° C 98% 1019.2 hPa 0 mm - 75 W/m² -
1787924279 23.33° C 99% 1019.1 hPa 0 mm - 74 W/m² -
1787923973 23.33° C 99% 1019 hPa 0 mm - 88 W/m² -
1787923668 22.78° C 99% 1018.9 hPa 0 mm - 101 W/m² -
1787923363 23.33° C 99% 1018.7 hPa 0 mm - 101 W/m² -
1787923058 22.78° C 99% 1018.8 hPa 0 mm - 67 W/m² -
1787922753 22.78° C 99% 1019 hPa 0 mm - 64 W/m² -
1787922452 22.78° C 99% 1019 hPa 0 mm - 59 W/m² -
1787922150 22.78° C 99% 1018.7 hPa 0 mm - 48 W/m² -
1787921848 22.78° C 99% 1018.9 hPa 0 mm - 55 W/m² -
1787921544 22.78° C 99% 1018.8 hPa 0 mm - 56 W/m² -
1787921239 22.78° C 99% 1018.7 hPa 0 mm - 63 W/m² -
1787920935 22.78° C 99% 1018.8 hPa 0 mm - 55 W/m² -
1787920630 22.78° C 99% 1018.6 hPa 0 mm - 53 W/m² -
1787920324 22.78° C 99% 1018.8 hPa 0 mm - 62 W/m² -
1787920021 22.78° C 99% 1018.7 hPa 0 mm - 57 W/m² -
1787919720 22.78° C 99% 1018.7 hPa 0 mm - 44 W/m² -

* Rain latest hour (hover to see other rain measurements)
** Current wind speed in m/s (hover to see current wind gust speed)